Погода в Вознесенском

Россия / Архангельская область     62°20′10″N   44°12′40″E
темп.,
°C
ветер,
м/с
пор.,
м/с
влажн.,
%
обл.,
%
осадки,
мм/ч
давл.,
гПа
погр.,
м
24 июля, сб
сб2400:00+7сз310635 0.0 1005405
03:00+4зсз39815 0.0 1006247
06:00+7зсз377598 0.0 1008385
09:00+11зсз465672 0.0 10081384
12:00+12зсз4651100 0.1 10091782
15:00+14з484784 0.1 10101976
18:00+14з474960 0.0 10111575
21:00+10зюз267342 0.1 1012124
25 июля, вс
вс2500:00+9зюз257095 0.0 1013128
03:00+8з257494 0.0 1014125
06:00+11зюз2667100 0.0 1015269
09:00+13з365996 0.0 1015469
12:00+16зюз255050 0.0 1016980
15:00+17з3748100 0.0 1015698
18:00+17сз2555100 0.0 1015976
21:00+12зсз2580100 0.1 1017170
26 июля, пн
пн2600:00+10з25965 0.1 1018109
03:00+8зсз12988 0.1 101825
06:00+12зюз24865 0.0 1018198
09:00+18з3659100 0.0 1016887
12:00+21зсз5944100 0.0 10151897
15:00+18з4106734 0.3 1015873
18:00+17ссз410755 0.9 10161265
21:00+12с228657 0.9 101814
27 июля, вт
вт2700:00+9ссз26880 0.0 1019139
03:00+6с11970 0.0 102022
06:00+10с11770 0.0 1021194
09:00+14сз24525 0.0 10211017
12:00+18сз34415 0.0 10201392
15:00+21зсз35355 0.0 10191782
18:00+20зсз34415 0.0 10181340
21:00+13з116623 0.0 101711
28 июля, ср
ср2800:00+11ююз22725 0.0 101624
03:00+12ююз2968100 0.0 1013171
06:00+13зюз31192100 0.8 1011339
09:00+18з498195 0.9 1009526
12:00+24зсз41152100 0.0 10081387
15:00+27зсз6123728 0.0 10062706
18:00+24сз155767 0.1 1007779
21:00+16ююз23978 0.8 100764